Time,TemperatureF,DewpointF,PressureIn,WindDirection,WindDirectionDegrees,WindSpeedMPH,WindSpeedGustMPH,Humidity,HourlyPrecipIn,Conditions,Clouds,dailyrainin,SoftwareType,DateUTC
2013-02-01 00:00:00,58.5,37.2,30.12,NNW,338,4.0,4.0,45,0.00,,---,0.00,VWS V14.01,2013-02-01 05:00:00,
2013-02-01 00:01:00,58.5,37.2,30.12,North,0,3.6,6.9,45,0.00,,---,0.00,VWS V14.01,2013-02-01 05:01:00,
2013-02-01 00:06:00,58.3,36.5,30.12,NW,315,5.4,5.6,44,0.00,,---,0.00,VWS V14.01,2013-02-01 05:06:00,
2013-02-01 00:11:00,58.3,35.9,30.12,NW,315,4.0,6.0,43,0.00,,---,0.00,VWS V14.01,2013-02-01 05:11:00,
2013-02-01 00:16:00,58.3,35.9,30.12,NW,315,3.8,3.8,43,0.00,,---,0.00,VWS V14.01,2013-02-01 05:16:00,
2013-02-01 00:21:00,58.3,35.3,30.12,NNW,338,6.0,6.0,42,0.00,,---,0.00,VWS V14.01,2013-02-01 05:21:00,
2013-02-01 00:26:00,58.3,35.9,30.12,NW,315,5.8,5.8,43,0.00,,---,0.00,VWS V14.01,2013-02-01 05:26:00,
2013-02-01 00:31:00,58.1,35.2,30.12,NNW,338,5.8,7.6,42,0.00,,---,0.00,VWS V14.01,2013-02-01 05:31:00,
2013-02-01 00:36:00,58.1,35.7,30.12,NW,315,2.9,4.0,43,0.00,,---,0.00,VWS V14.01,2013-02-01 05:36:00,
2013-02-01 00:41:00,58.1,35.7,30.12,NNW,338,3.6,6.0,43,0.00,,---,0.00,VWS V14.01,2013-02-01 05:41:00,
2013-02-01 00:46:00,58.1,36.3,30.12,NNW,338,2.5,2.7,44,0.00,,---,0.00,VWS V14.01,2013-02-01 05:46:00,
2013-02-01 00:51:00,57.9,36.2,30.12,North,0,4.0,5.4,44,0.00,,---,0.00,VWS V14.01,2013-02-01 05:51:00,
2013-02-01 00:56:00,57.9,35.6,30.12,NW,315,3.4,5.4,43,0.00,,---,0.00,VWS V14.01,2013-02-01 05:56:00,
2013-02-01 01:01:00,57.9,35.6,30.12,NW,315,4.9,6.5,43,0.00,,---,0.00,VWS V14.01,2013-02-01 06:01:00,
2013-02-01 01:06:00,57.7,35.4,30.12,NNW,338,3.4,6.3,43,0.00,,---,0.00,VWS V14.01,2013-02-01 06:06:00,
2013-02-01 01:11:00,57.7,36.0,30.12,NNW,338,6.0,6.0,44,0.00,,---,0.00,VWS V14.01,2013-02-01 06:11:00,
2013-02-01 01:16:00,57.6,36.4,30.12,NNW,338,2.7,2.7,45,0.00,,---,0.00,VWS V14.01,2013-02-01 06:16:00,
2013-02-01 01:21:00,57.4,36.2,30.12,NW,315,2.9,4.0,45,0.00,,---,0.00,VWS V14.01,2013-02-01 06:21:00,
2013-02-01 01:26:00,57.4,36.2,30.12,North,0,2.5,3.4,45,0.00,,---,0.00,VWS V14.01,2013-02-01 06:26:00,
2013-02-01 01:31:00,57.2,36.6,30.12,NNW,338,4.0,5.4,46,0.00,,---,0.00,VWS V14.01,2013-02-01 06:31:00,
2013-02-01 01:36:00,57.0,36.5,30.15,NW,315,3.6,4.9,46,0.00,,---,0.00,VWS V14.01,2013-02-01 06:36:00,
2013-02-01 01:41:00,57.0,37.0,30.15,SSW,202,4.0,5.6,47,0.00,,---,0.00,VWS V14.01,2013-02-01 06:41:00,
2013-02-01 01:46:00,56.8,36.8,30.15,NW,315,2.9,3.8,47,0.00,,---,0.00,VWS V14.01,2013-02-01 06:46:00,
2013-02-01 01:51:00,56.8,36.8,30.12,North,0,4.9,7.4,47,0.00,,---,0.00,VWS V14.01,2013-02-01 06:51:00,
2013-02-01 01:56:00,56.7,36.7,30.12,NNW,338,2.9,5.4,47,0.00,,---,0.00,VWS V14.01,2013-02-01 06:56:00,
2013-02-01 02:01:00,56.7,36.7,30.12,NNW,338,3.6,4.5,47,0.00,,---,0.00,VWS V14.01,2013-02-01 07:01:00,
2013-02-01 02:06:00,56.7,36.7,30.12,NNW,338,3.1,4.7,47,0.00,,---,0.00,VWS V14.01,2013-02-01 07:06:00,
2013-02-01 02:11:00,56.7,36.1,30.12,NW,315,2.9,4.3,46,0.00,,---,0.00,VWS V14.01,2013-02-01 07:11:00,
2013-02-01 02:16:00,56.5,36.0,30.12,NW,315,3.1,3.1,46,0.00,,---,0.00,VWS V14.01,2013-02-01 07:16:00,
2013-02-01 02:21:00,56.3,35.8,30.12,NW,315,4.7,4.7,46,0.00,,---,0.00,VWS V14.01,2013-02-01 07:21:00,
2013-02-01 02:26:00,56.1,35.6,30.12,NW,315,4.9,4.9,46,0.00,,---,0.00,VWS V14.01,2013-02-01 07:26:00,
2013-02-01 02:31:00,55.9,35.5,30.12,WNW,292,3.6,6.0,46,0.00,,---,0.00,VWS V14.01,2013-02-01 07:31:00,
2013-02-01 02:36:00,55.9,35.5,30.12,NNW,338,3.8,4.3,46,0.00,,---,0.00,VWS V14.01,2013-02-01 07:36:00,
2013-02-01 02:41:00,55.8,35.3,30.12,NW,315,3.4,4.3,46,0.00,,---,0.00,VWS V14.01,2013-02-01 07:41:00,
2013-02-01 02:46:00,55.8,35.3,30.12,WNW,292,4.9,4.9,46,0.00,,---,0.00,VWS V14.01,2013-02-01 07:46:00,
2013-02-01 02:51:00,55.8,35.3,30.12,NNW,338,4.3,5.6,46,0.00,,---,0.00,VWS V14.01,2013-02-01 07:51:00,
2013-02-01 02:56:00,55.6,35.2,30.12,NW,315,3.4,3.6,46,0.00,,---,0.00,VWS V14.01,2013-02-01 07:56:00,
2013-02-01 03:01:00,55.6,35.2,30.12,North,0,6.3,6.3,46,0.00,,---,0.00,VWS V14.01,2013-02-01 08:01:00,
2013-02-01 03:06:00,55.6,35.2,30.12,NNW,338,4.0,4.3,46,0.00,,---,0.00,VWS V14.01,2013-02-01 08:06:00,
2013-02-01 03:11:00,55.6,35.2,30.12,NNW,338,2.9,4.3,46,0.00,,---,0.00,VWS V14.01,2013-02-01 08:11:00,
2013-02-01 03:16:00,55.6,35.2,30.12,NW,315,4.9,5.6,46,0.00,,---,0.00,VWS V14.01,2013-02-01 08:16:00,
2013-02-01 03:21:00,55.6,35.2,30.12,NNW,338,5.8,5.8,46,0.00,,---,0.00,VWS V14.01,2013-02-01 08:21:00,
2013-02-01 03:26:00,55.8,35.3,30.12,NNW,338,3.4,3.6,46,0.00,,---,0.00,VWS V14.01,2013-02-01 08:26:00,
2013-02-01 03:31:00,55.8,35.3,30.12,WNW,292,3.1,6.3,46,0.00,,---,0.00,VWS V14.01,2013-02-01 08:31:00,
2013-02-01 03:36:00,55.8,35.3,30.09,NNE,22,4.0,4.0,46,0.00,,---,0.00,VWS V14.01,2013-02-01 08:36:00,
2013-02-01 03:41:00,55.8,35.3,30.09,NNW,338,3.6,4.9,46,0.00,,---,0.00,VWS V14.01,2013-02-01 08:41:00,
2013-02-01 03:46:00,55.8,35.8,30.09,NNW,338,3.6,3.6,47,0.00,,---,0.00,VWS V14.01,2013-02-01 08:46:00,
2013-02-01 03:51:00,55.8,35.8,30.09,North,0,2.5,4.9,47,0.00,,---,0.00,VWS V14.01,2013-02-01 08:51:00,
2013-02-01 03:56:00,55.6,35.7,30.09,WNW,292,2.9,4.9,47,0.00,,---,0.00,VWS V14.01,2013-02-01 08:56:00,
2013-02-01 04:01:00,55.6,35.7,30.09,NNW,338,4.3,4.9,47,0.00,,---,0.00,VWS V14.01,2013-02-01 09:01:00,
2013-02-01 04:06:00,55.4,35.5,30.09,NNW,338,4.9,6.0,47,0.00,,---,0.00,VWS V14.01,2013-02-01 09:06:00,
2013-02-01 04:11:00,55.2,35.4,30.09,North,0,9.0,9.0,47,0.00,,---,0.00,VWS V14.01,2013-02-01 09:11:00,
2013-02-01 04:16:00,55.2,35.4,30.09,NNW,338,5.4,6.0,47,0.00,,---,0.00,VWS V14.01,2013-02-01 09:16:00,
2013-02-01 04:21:00,55.0,35.7,30.09,NW,315,6.3,6.3,48,0.00,,---,0.00,VWS V14.01,2013-02-01 09:21:00,
2013-02-01 04:26:00,55.0,35.7,30.09,North,0,3.8,6.0,48,0.00,,---,0.00,VWS V14.01,2013-02-01 09:26:00,
2013-02-01 04:31:00,55.0,35.7,30.09,North,0,5.8,6.5,48,0.00,,---,0.00,VWS V14.01,2013-02-01 09:31:00,
2013-02-01 04:36:00,55.0,36.2,30.12,NW,315,2.9,6.0,49,0.00,,---,0.00,VWS V14.01,2013-02-01 09:36:00,
2013-02-01 04:41:00,54.9,36.1,30.12,NW,315,6.3,6.3,49,0.00,,---,0.00,VWS V14.01,2013-02-01 09:41:00,
2013-02-01 04:46:00,54.7,36.4,30.12,NW,315,4.5,7.6,50,0.00,,---,0.00,VWS V14.01,2013-02-01 09:46:00,
2013-02-01 04:51:00,54.7,36.4,30.12,NNE,22,4.9,6.5,50,0.00,,---,0.00,VWS V14.01,2013-02-01 09:51:00,
2013-02-01 04:56:00,54.7,36.4,30.12,NW,315,6.0,6.0,50,0.00,,---,0.00,VWS V14.01,2013-02-01 09:56:00,
2013-02-01 05:01:00,54.5,36.8,30.12,NW,315,3.1,7.6,51,0.00,,---,0.00,VWS V14.01,2013-02-01 10:01:00,
2013-02-01 05:06:00,54.5,36.8,30.15,North,0,4.0,4.7,51,0.00,,---,0.00,VWS V14.01,2013-02-01 10:06:00,
2013-02-01 05:11:00,54.3,37.1,30.15,NNW,338,3.6,7.6,52,0.00,,---,0.00,VWS V14.01,2013-02-01 10:11:00,
2013-02-01 05:16:00,54.3,37.1,30.15,NW,315,2.7,3.8,52,0.00,,---,0.00,VWS V14.01,2013-02-01 10:16:00,
2013-02-01 05:21:00,54.3,37.6,30.15,NW,315,5.4,5.4,53,0.00,,---,0.00,VWS V14.01,2013-02-01 10:21:00,
2013-02-01 05:26:00,54.1,37.4,30.15,NNW,338,6.3,7.2,53,0.00,,---,0.00,VWS V14.01,2013-02-01 10:26:00,
2013-02-01 05:31:00,54.0,37.7,30.15,NW,315,4.3,4.7,54,0.00,,---,0.00,VWS V14.01,2013-02-01 10:31:00,
2013-02-01 05:36:00,54.0,37.7,30.15,NW,315,5.8,7.8,54,0.00,,---,0.00,VWS V14.01,2013-02-01 10:36:00,
2013-02-01 05:41:00,53.8,37.5,30.15,NNW,338,3.1,4.0,54,0.00,,---,0.00,VWS V14.01,2013-02-01 10:41:00,
2013-02-01 05:46:00,53.8,38.0,30.15,NNW,338,3.4,3.4,55,0.00,,---,0.00,VWS V14.01,2013-02-01 10:46:00,
2013-02-01 05:51:00,53.6,37.8,30.15,North,0,3.6,5.8,55,0.00,,---,0.00,VWS V14.01,2013-02-01 10:51:00,
2013-02-01 05:56:00,53.6,37.8,30.15,North,0,4.0,7.4,55,0.00,,---,0.00,VWS V14.01,2013-02-01 10:56:00,
2013-02-01 06:01:00,53.6,37.8,30.15,NW,315,6.3,6.3,55,0.00,,---,0.00,VWS V14.01,2013-02-01 11:01:00,
2013-02-01 06:06:00,53.6,37.8,30.15,NW,315,5.8,6.0,55,0.00,,---,0.00,VWS V14.01,2013-02-01 11:06:00,
2013-02-01 06:11:00,53.4,38.1,30.15,WSW,248,5.8,5.8,56,0.00,,---,0.00,VWS V14.01,2013-02-01 11:11:00,
2013-02-01 06:16:00,53.4,38.6,30.15,NW,315,2.7,3.4,57,0.00,,---,0.00,VWS V14.01,2013-02-01 11:16:00,
2013-02-01 06:21:00,53.2,38.9,30.15,WNW,292,4.3,4.3,58,0.00,,---,0.00,VWS V14.01,2013-02-01 11:21:00,
2013-02-01 06:26:00,53.2,38.9,30.15,NW,315,5.6,6.0,58,0.00,,---,0.00,VWS V14.01,2013-02-01 11:26:00,
2013-02-01 06:31:00,53.2,39.3,30.15,NNW,338,5.4,5.4,59,0.00,,---,0.00,VWS V14.01,2013-02-01 11:31:00,
2013-02-01 06:36:00,53.1,39.1,30.12,NW,315,4.3,5.6,59,0.00,,---,0.00,VWS V14.01,2013-02-01 11:36:00,
2013-02-01 06:41:00,53.1,39.6,30.12,NW,315,5.6,5.6,60,0.00,,---,0.00,VWS V14.01,2013-02-01 11:41:00,
2013-02-01 06:46:00,53.1,39.6,30.12,West,270,3.6,3.6,60,0.00,,---,0.00,VWS V14.01,2013-02-01 11:46:00,
2013-02-01 06:51:00,53.1,39.6,30.12,NW,315,6.0,6.0,60,0.00,,---,0.00,VWS V14.01,2013-02-01 11:51:00,
2013-02-01 06:56:00,53.1,40.4,30.12,NW,315,2.7,5.8,62,0.00,,---,0.00,VWS V14.01,2013-02-01 11:56:00,
2013-02-01 07:01:00,53.1,40.4,30.12,NNW,338,3.8,3.8,62,0.00,,---,0.00,VWS V14.01,2013-02-01 12:01:00,
2013-02-01 07:06:00,53.1,40.4,30.15,NNW,338,4.7,4.7,62,0.00,,---,0.00,VWS V14.01,2013-02-01 12:06:00,
2013-02-01 07:11:00,53.1,40.8,30.15,West,270,3.6,5.4,63,0.00,,---,0.00,VWS V14.01,2013-02-01 12:11:00,
2013-02-01 07:16:00,53.1,40.8,30.15,NNW,338,4.3,4.3,63,0.00,,---,0.00,VWS V14.01,2013-02-01 12:16:00,
2013-02-01 07:21:00,53.1,40.8,30.18,NNW,338,6.0,6.0,63,0.00,,---,0.00,VWS V14.01,2013-02-01 12:21:00,
2013-02-01 07:26:00,53.2,40.6,30.18,WNW,292,3.4,3.6,62,0.00,,---,0.00,VWS V14.01,2013-02-01 12:26:00,
2013-02-01 07:31:00,54.0,40.8,30.18,NNW,338,5.6,5.6,61,0.00,,---,0.00,VWS V14.01,2013-02-01 12:31:00,
2013-02-01 07:36:00,54.1,40.6,30.15,NW,315,4.9,6.0,60,0.00,,---,0.00,VWS V14.01,2013-02-01 12:36:00,
2013-02-01 07:41:00,54.1,40.6,30.15,NW,315,8.7,8.7,60,0.00,,---,0.00,VWS V14.01,2013-02-01 12:41:00,
2013-02-01 07:46:00,54.7,40.7,30.15,WNW,292,5.6,5.6,59,0.00,,---,0.00,VWS V14.01,2013-02-01 12:46:00,
2013-02-01 07:51:00,54.9,40.8,30.18,NW,315,5.4,6.9,59,0.00,,---,0.00,VWS V14.01,2013-02-01 12:51:00,
2013-02-01 07:56:00,55.4,40.4,30.18,NW,315,5.8,7.2,57,0.00,,---,0.00,VWS V14.01,2013-02-01 12:56:00,
2013-02-01 08:01:00,55.8,40.8,30.18,NNW,338,6.3,6.3,57,0.00,,---,0.00,VWS V14.01,2013-02-01 13:01:00,
2013-02-01 08:06:00,55.4,40.0,30.18,West,270,4.9,5.8,56,0.00,,---,0.00,VWS V14.01,2013-02-01 13:06:00,
2013-02-01 08:11:00,55.0,39.7,30.18,NW,315,9.6,9.6,56,0.00,,---,0.00,VWS V14.01,2013-02-01 13:11:00,
2013-02-01 08:16:00,55.2,40.3,30.18,NNW,338,6.3,6.3,57,0.00,,---,0.00,VWS V14.01,2013-02-01 13:16:00,
2013-02-01 08:21:00,55.2,40.3,30.18,NNW,338,5.6,7.4,57,0.00,,---,0.00,VWS V14.01,2013-02-01 13:21:00,
2013-02-01 08:26:00,55.4,40.9,30.18,NNW,338,7.6,7.6,58,0.00,,---,0.00,VWS V14.01,2013-02-01 13:26:00,
2013-02-01 08:31:00,55.8,41.2,30.18,NW,315,6.0,6.0,58,0.00,,---,0.00,VWS V14.01,2013-02-01 13:31:00,
2013-02-01 08:36:00,55.8,41.2,30.18,NNW,338,6.5,10.3,58,0.00,,---,0.00,VWS V14.01,2013-02-01 13:36:00,
2013-02-01 08:41:00,56.1,41.6,30.18,NNW,338,12.1,12.1,58,0.00,,---,0.00,VWS V14.01,2013-02-01 13:41:00,
2013-02-01 08:46:00,56.3,41.7,30.18,NNW,338,7.6,7.6,58,0.00,,---,0.00,VWS V14.01,2013-02-01 13:46:00,
2013-02-01 08:51:00,56.8,42.7,30.21,NW,315,7.4,7.4,59,0.00,,---,0.00,VWS V14.01,2013-02-01 13:51:00,
2013-02-01 08:56:00,57.2,43.0,30.21,NW,315,4.3,4.3,59,0.00,,---,0.00,VWS V14.01,2013-02-01 13:56:00,
2013-02-01 09:01:00,57.6,42.9,30.21,NNW,338,5.4,7.6,58,0.00,,---,0.00,VWS V14.01,2013-02-01 14:01:00,
2013-02-01 09:06:00,58.1,43.4,30.21,NW,315,4.0,6.0,58,0.00,,---,0.00,VWS V14.01,2013-02-01 14:06:00,
2013-02-01 09:11:00,58.8,44.1,30.21,West,270,4.3,4.3,58,0.00,,---,0.00,VWS V14.01,2013-02-01 14:11:00,
2013-02-01 09:16:00,59.4,43.7,30.21,North,0,5.4,5.4,56,0.00,,---,0.00,VWS V14.01,2013-02-01 14:16:00,
2013-02-01 09:21:00,60.1,44.8,30.21,NNW,338,3.4,3.4,57,0.00,,---,0.00,VWS V14.01,2013-02-01 14:21:00,
2013-02-01 09:26:00,61.0,45.2,30.21,WNW,292,4.0,4.0,56,0.00,,---,0.00,VWS V14.01,2013-02-01 14:26:00,
2013-02-01 09:31:00,61.5,45.2,30.21,WNW,292,6.9,6.9,55,0.00,,---,0.00,VWS V14.01,2013-02-01 14:31:00,
2013-02-01 09:36:00,62.8,46.4,30.21,NNW,338,4.7,4.7,55,0.00,,---,0.00,VWS V14.01,2013-02-01 14:36:00,
2013-02-01 09:41:00,63.5,46.1,30.21,NW,315,7.2,8.5,53,0.00,,---,0.00,VWS V14.01,2013-02-01 14:41:00,
2013-02-01 09:46:00,63.9,45.9,30.21,NNW,338,3.8,3.8,52,0.00,,---,0.00,VWS V14.01,2013-02-01 14:46:00,
2013-02-01 09:51:00,65.1,47.1,30.21,NNW,338,3.8,3.8,52,0.00,,---,0.00,VWS V14.01,2013-02-01 14:51:00,
2013-02-01 09:56:00,65.7,47.1,30.21,NNW,338,6.5,7.2,51,0.00,,---,0.00,VWS V14.01,2013-02-01 14:56:00,
2013-02-01 10:00:00,66.4,47.2,30.21,WNW,292,3.4,6.0,50,0.00,,---,0.00,VWS V14.01,2013-02-01 15:00:00,
2013-02-01 10:05:00,66.7,47.0,30.18,NNW,338,6.5,8.5,49,0.00,,---,0.00,VWS V14.01,2013-02-01 15:05:00,
2013-02-01 10:10:00,67.1,46.8,30.18,NNW,338,4.9,8.5,48,0.00,,---,0.00,VWS V14.01,2013-02-01 15:10:00,
2013-02-01 10:15:00,67.6,47.3,30.18,NE,45,6.3,8.1,48,0.00,,---,0.00,VWS V14.01,2013-02-01 15:15:00,
2013-02-01 10:20:00,68.0,47.6,30.21,NW,315,3.8,11.2,48,0.00,,---,0.00,VWS V14.01,2013-02-01 15:20:00,
2013-02-01 10:25:00,68.4,47.9,30.21,NNW,338,5.4,9.8,48,0.00,,---,0.00,VWS V14.01,2013-02-01 15:25:00,
2013-02-01 10:30:00,69.1,48.6,30.21,NW,315,7.8,10.3,48,0.00,,---,0.00,VWS V14.01,2013-02-01 15:30:00,
2013-02-01 10:35:00,69.4,48.9,30.21,NW,315,4.0,12.8,48,0.00,,---,0.00,VWS V14.01,2013-02-01 15:35:00,
2013-02-01 10:40:00,70.2,49.0,30.21,NNW,338,6.0,6.3,47,0.00,,---,0.00,VWS V14.01,2013-02-01 15:40:00,
2013-02-01 10:45:00,71.1,50.4,30.21,NE,45,3.6,5.8,48,0.00,,---,0.00,VWS V14.01,2013-02-01 15:45:00,
2013-02-01 10:50:00,71.1,50.4,30.21,NW,315,3.6,4.5,48,0.00,,---,0.00,VWS V14.01,2013-02-01 15:50:00,
2013-02-01 10:55:00,71.8,49.9,30.21,NNW,338,3.1,6.3,46,0.00,,---,0.00,VWS V14.01,2013-02-01 15:55:00,
2013-02-01 11:00:00,72.0,50.1,30.21,WNW,292,5.4,5.4,46,0.00,,---,0.00,VWS V14.01,2013-02-01 16:00:00,
2013-02-01 11:05:00,73.6,51.5,30.21,NNE,22,4.0,4.5,46,0.00,,---,0.00,VWS V14.01,2013-02-01 16:05:00,
2013-02-01 11:10:00,73.4,50.2,30.21,NE,45,5.8,7.2,44,0.00,,---,0.00,VWS V14.01,2013-02-01 16:10:00,
2013-02-01 11:15:00,73.9,50.7,30.21,WNW,292,2.9,7.6,44,0.00,,---,0.00,VWS V14.01,2013-02-01 16:15:00,
2013-02-01 11:20:00,73.8,50.5,30.21,NNW,338,8.1,8.1,44,0.00,,---,0.00,VWS V14.01,2013-02-01 16:20:00,
2013-02-01 11:25:00,73.9,51.3,30.21,NE,45,4.9,5.8,45,0.00,,---,0.00,VWS V14.01,2013-02-01 16:25:00,
2013-02-01 11:30:00,74.1,50.8,30.21,NNW,338,6.5,11.0,44,0.00,,---,0.00,VWS V14.01,2013-02-01 16:30:00,
2013-02-01 11:35:00,74.7,51.9,30.21,NNW,338,5.4,5.8,45,0.00,,---,0.00,VWS V14.01,2013-02-01 16:35:00,
2013-02-01 11:40:00,74.7,51.3,30.21,NE,45,5.4,6.3,44,0.00,,---,0.00,VWS V14.01,2013-02-01 16:40:00,
2013-02-01 11:45:00,75.0,51.0,30.21,NW,315,3.1,3.4,43,0.00,,---,0.00,VWS V14.01,2013-02-01 16:45:00,
2013-02-01 11:50:00,74.5,50.5,30.21,NW,315,10.5,10.5,43,0.00,,---,0.00,VWS V14.01,2013-02-01 16:50:00,
2013-02-01 11:55:00,74.1,50.2,30.21,NW,315,7.6,9.8,43,0.00,,---,0.00,VWS V14.01,2013-02-01 16:55:00,
2013-02-01 12:00:00,73.9,50.1,30.21,North,0,5.8,9.0,43,0.00,,---,0.00,VWS V14.01,2013-02-01 17:00:00,
2013-02-01 12:05:00,74.3,51.0,30.21,NNE,22,2.9,5.6,44,0.00,,---,0.00,VWS V14.01,2013-02-01 17:05:00,
2013-02-01 12:10:00,74.3,51.0,30.21,NW,315,4.0,6.3,44,0.00,,---,0.00,VWS V14.01,2013-02-01 17:10:00,
2013-02-01 12:15:00,74.3,51.0,30.21,NNW,338,3.6,6.3,44,0.00,,---,0.00,VWS V14.01,2013-02-01 17:15:00,
2013-02-01 12:20:00,74.5,51.2,30.21,NW,315,2.9,2.9,44,0.00,,---,0.00,VWS V14.01,2013-02-01 17:20:00,
2013-02-01 12:25:00,74.5,50.5,30.21,NNE,22,2.9,5.8,43,0.00,,---,0.00,VWS V14.01,2013-02-01 17:25:00,
2013-02-01 12:30:00,74.3,50.4,30.21,North,0,5.6,5.6,43,0.00,,---,0.00,VWS V14.01,2013-02-01 17:30:00,
2013-02-01 12:35:00,74.5,50.5,30.21,NE,45,3.1,7.6,43,0.00,,---,0.00,VWS V14.01,2013-02-01 17:35:00,
2013-02-01 12:40:00,74.5,50.5,30.21,NE,45,5.6,10.3,43,0.00,,---,0.00,VWS V14.01,2013-02-01 17:40:00,
2013-02-01 12:45:00,74.8,51.5,30.21,North,0,6.5,7.4,44,0.00,,---,0.00,VWS V14.01,2013-02-01 17:45:00,
2013-02-01 12:50:00,74.1,50.8,30.18,NNW,338,5.6,6.5,44,0.00,,---,0.00,VWS V14.01,2013-02-01 17:50:00,
2013-02-01 12:55:00,74.1,51.4,30.18,NW,315,3.4,3.4,45,0.00,,---,0.00,VWS V14.01,2013-02-01 17:55:00,
2013-02-01 13:00:00,74.7,51.3,30.18,ENE,68,3.8,6.7,44,0.00,,---,0.00,VWS V14.01,2013-02-01 18:00:00,
2013-02-01 13:05:00,74.5,51.2,30.18,WNW,292,6.0,6.0,44,0.00,,---,0.00,VWS V14.01,2013-02-01 18:05:00,
2013-02-01 13:10:00,74.5,51.2,30.18,NNW,338,3.1,3.8,44,0.00,,---,0.00,VWS V14.01,2013-02-01 18:10:00,
2013-02-01 13:15:00,74.5,51.2,30.18,North,0,2.7,4.9,44,0.00,,---,0.00,VWS V14.01,2013-02-01 18:15:00,
2013-02-01 13:20:00,74.3,51.6,30.18,East,90,3.1,3.6,45,0.00,,---,0.00,VWS V14.01,2013-02-01 18:20:00,
2013-02-01 13:25:00,73.8,51.1,30.18,NNE,22,2.0,2.0,45,0.00,,---,0.00,VWS V14.01,2013-02-01 18:25:00,
2013-02-01 13:30:00,74.3,52.2,30.18,WNW,292,4.0,9.2,46,0.00,,---,0.00,VWS V14.01,2013-02-01 18:30:00,
2013-02-01 13:35:00,74.3,52.2,30.18,East,90,2.5,5.8,46,0.00,,---,0.00,VWS V14.01,2013-02-01 18:35:00,
2013-02-01 13:40:00,73.9,52.5,30.18,WNW,292,6.0,6.5,47,0.00,,---,0.00,VWS V14.01,2013-02-01 18:40:00,
2013-02-01 13:45:00,73.9,51.9,30.18,NE,45,2.9,6.0,46,0.00,,---,0.00,VWS V14.01,2013-02-01 18:45:00,
2013-02-01 13:50:00,73.9,51.9,30.18,NNW,338,2.5,5.6,46,0.00,,---,0.00,VWS V14.01,2013-02-01 18:50:00,
2013-02-01 13:55:00,73.9,51.9,30.18,ENE,68,3.4,3.4,46,0.00,,---,0.00,VWS V14.01,2013-02-01 18:55:00,
2013-02-01 14:00:00,74.5,51.8,30.18,WNW,292,3.4,6.0,45,0.00,,---,0.00,VWS V14.01,2013-02-01 19:00:00,
2013-02-01 14:05:00,74.8,52.1,30.15,NNE,22,2.5,2.5,45,0.00,,---,0.00,VWS V14.01,2013-02-01 19:05:00,
2013-02-01 14:10:00,75.4,52.6,30.15,NNE,22,3.8,3.8,45,0.00,,---,0.00,VWS V14.01,2013-02-01 19:10:00,
2013-02-01 14:15:00,75.0,52.3,30.15,NNW,338,3.1,3.1,45,0.00,,---,0.00,VWS V14.01,2013-02-01 19:15:00,
2013-02-01 14:20:00,74.8,51.5,30.15,ENE,68,2.9,11.9,44,0.00,,---,0.00,VWS V14.01,2013-02-01 19:20:00,
2013-02-01 14:25:00,74.7,50.7,30.15,North,0,4.0,10.7,43,0.00,,---,0.00,VWS V14.01,2013-02-01 19:25:00,
2013-02-01 14:30:00,74.5,49.9,30.15,NW,315,5.8,7.6,42,0.00,,---,0.00,VWS V14.01,2013-02-01 19:30:00,
2013-02-01 14:35:00,74.7,50.7,30.15,NNE,22,3.4,5.8,43,0.00,,---,0.00,VWS V14.01,2013-02-01 19:35:00,
2013-02-01 14:40:00,74.7,50.7,30.15,North,0,3.8,7.6,43,0.00,,---,0.00,VWS V14.01,2013-02-01 19:40:00,
2013-02-01 14:45:00,74.7,50.7,30.15,NE,45,6.0,6.5,43,0.00,,---,0.00,VWS V14.01,2013-02-01 19:45:00,
2013-02-01 14:50:00,74.8,50.9,30.15,ENE,68,5.6,6.0,43,0.00,,---,0.00,VWS V14.01,2013-02-01 19:50:00,
2013-02-01 14:55:00,74.3,49.8,30.15,NNW,338,3.1,4.0,42,0.00,,---,0.00,VWS V14.01,2013-02-01 19:55:00,
2013-02-01 15:00:00,73.8,49.9,30.15,NNE,22,8.5,8.5,43,0.00,,---,0.00,VWS V14.01,2013-02-01 20:00:00,
2013-02-01 15:05:00,73.9,49.4,30.15,NE,45,6.0,12.3,42,0.00,,---,0.00,VWS V14.01,2013-02-01 20:05:00,
2013-02-01 15:10:00,74.3,50.4,30.15,NNE,22,4.9,6.3,43,0.00,,---,0.00,VWS V14.01,2013-02-01 20:10:00,
2013-02-01 15:15:00,74.5,50.5,30.15,North,0,6.0,6.0,43,0.00,,---,0.00,VWS V14.01,2013-02-01 20:15:00,
2013-02-01 15:20:00,73.4,49.6,30.15,NNW,338,2.2,4.9,43,0.00,,---,0.00,VWS V14.01,2013-02-01 20:20:00,
2013-02-01 15:25:00,73.4,50.2,30.15,ENE,68,6.3,8.5,44,0.00,,---,0.00,VWS V14.01,2013-02-01 20:25:00,
2013-02-01 15:30:00,73.4,50.8,30.15,NE,45,4.7,6.3,45,0.00,,---,0.00,VWS V14.01,2013-02-01 20:30:00,
2013-02-01 15:35:00,73.0,50.5,30.15,North,0,1.3,4.3,45,0.00,,---,0.00,VWS V14.01,2013-02-01 20:35:00,
2013-02-01 15:40:00,73.2,51.2,30.15,NNE,22,4.9,9.8,46,0.00,,---,0.00,VWS V14.01,2013-02-01 20:40:00,
2013-02-01 15:45:00,73.2,51.2,30.15,NE,45,5.4,5.4,46,0.00,,---,0.00,VWS V14.01,2013-02-01 20:45:00,
2013-02-01 15:50:00,73.4,51.4,30.15,NE,45,2.5,4.3,46,0.00,,---,0.00,VWS V14.01,2013-02-01 20:50:00,
2013-02-01 15:55:00,73.2,51.2,30.15,NNE,22,1.3,3.6,46,0.00,,---,0.00,VWS V14.01,2013-02-01 20:55:00,
2013-02-01 16:00:00,72.9,50.3,30.15,NNE,22,4.3,4.3,45,0.00,,---,0.00,VWS V14.01,2013-02-01 21:00:00,
2013-02-01 16:05:00,72.7,50.7,30.15,NE,45,3.8,5.8,46,0.00,,---,0.00,VWS V14.01,2013-02-01 21:05:00,
2013-02-01 16:10:00,72.5,50.6,30.15,NNE,22,0.9,5.6,46,0.00,,---,0.00,VWS V14.01,2013-02-01 21:10:00,
2013-02-01 16:15:00,72.7,51.3,30.15,NE,45,5.4,6.5,47,0.00,,---,0.00,VWS V14.01,2013-02-01 21:15:00,
2013-02-01 16:20:00,72.7,51.3,30.15,NE,45,2.7,5.6,47,0.00,,---,0.00,VWS V14.01,2013-02-01 21:20:00,
2013-02-01 16:25:00,72.7,51.9,30.15,NNW,338,2.0,6.0,48,0.00,,---,0.00,VWS V14.01,2013-02-01 21:25:00,
2013-02-01 16:30:00,72.3,51.0,30.15,North,0,3.8,5.6,47,0.00,,---,0.00,VWS V14.01,2013-02-01 21:30:00,
2013-02-01 16:35:00,72.1,51.4,30.15,NE,45,4.7,5.4,48,0.00,,---,0.00,VWS V14.01,2013-02-01 21:35:00,
2013-02-01 16:40:00,72.3,51.5,30.15,North,0,3.1,3.8,48,0.00,,---,0.00,VWS V14.01,2013-02-01 21:40:00,
2013-02-01 16:45:00,72.0,51.2,30.15,NW,315,3.8,4.3,48,0.00,,---,0.00,VWS V14.01,2013-02-01 21:45:00,
2013-02-01 16:50:00,72.0,51.8,30.15,ENE,68,6.0,6.0,49,0.00,,---,0.00,VWS V14.01,2013-02-01 21:50:00,
2013-02-01 16:55:00,71.8,51.6,30.15,NNW,338,3.4,5.4,49,0.00,,---,0.00,VWS V14.01,2013-02-01 21:55:00,
2013-02-01 17:00:00,71.4,51.8,30.15,NE,45,5.6,5.6,50,0.00,,---,0.00,VWS V14.01,2013-02-01 22:00:00,
2013-02-01 17:05:00,71.1,51.5,30.18,North,0,2.9,10.1,50,0.00,,---,0.00,VWS V14.01,2013-02-01 22:05:00,
2013-02-01 17:10:00,70.9,51.9,30.18,WSW,248,5.4,5.6,51,0.00,,---,0.00,VWS V14.01,2013-02-01 22:10:00,
2013-02-01 17:15:00,70.5,51.5,30.18,North,0,2.7,6.9,51,0.00,,---,0.00,VWS V14.01,2013-02-01 22:15:00,
2013-02-01 17:20:00,70.3,51.4,30.18,NW,315,3.1,4.7,51,0.00,,---,0.00,VWS V14.01,2013-02-01 22:20:00,
2013-02-01 17:25:00,70.2,51.7,30.18,NNE,22,4.0,5.4,52,0.00,,---,0.00,VWS V14.01,2013-02-01 22:25:00,
2013-02-01 17:30:00,69.8,51.4,30.18,NW,315,8.7,8.7,52,0.00,,---,0.00,VWS V14.01,2013-02-01 22:30:00,
2013-02-01 17:35:00,69.3,51.4,30.18,NNW,338,2.7,4.9,53,0.00,,---,0.00,VWS V14.01,2013-02-01 22:35:00,
2013-02-01 17:40:00,69.3,51.9,30.18,North,0,4.9,4.9,54,0.00,,---,0.00,VWS V14.01,2013-02-01 22:40:00,
2013-02-01 17:45:00,68.9,51.6,30.18,NW,315,6.3,6.3,54,0.00,,---,0.00,VWS V14.01,2013-02-01 22:45:00,
2013-02-01 17:50:00,68.5,51.8,30.18,WSW,248,6.3,6.3,55,0.00,,---,0.00,VWS V14.01,2013-02-01 22:50:00,
2013-02-01 17:55:00,68.2,51.4,30.18,NW,315,1.3,3.6,55,0.00,,---,0.00,VWS V14.01,2013-02-01 22:55:00,
2013-02-01 18:00:00,68.0,51.2,30.18,North,0,2.5,3.8,55,0.00,,---,0.00,VWS V14.01,2013-02-01 23:00:00,
2013-02-01 18:05:00,67.6,51.9,30.18,NNW,338,4.9,7.2,57,0.00,,---,0.00,VWS V14.01,2013-02-01 23:05:00,
2013-02-01 18:10:00,67.5,51.7,30.18,North,0,2.5,3.4,57,0.00,,---,0.00,VWS V14.01,2013-02-01 23:10:00,
2013-02-01 18:15:00,67.3,52.0,30.18,North,0,5.6,5.6,58,0.00,,---,0.00,VWS V14.01,2013-02-01 23:15:00,
2013-02-01 18:20:00,66.9,52.1,30.18,NW,315,2.9,5.8,59,0.00,,---,0.00,VWS V14.01,2013-02-01 23:20:00,
2013-02-01 18:25:00,66.7,52.0,30.18,NNW,338,5.4,5.4,59,0.00,,---,0.00,VWS V14.01,2013-02-01 23:25:00,
2013-02-01 18:30:00,66.6,51.8,30.18,NNW,338,3.6,4.9,59,0.00,,---,0.00,VWS V14.01,2013-02-01 23:30:00,
2013-02-01 18:35:00,66.6,51.8,30.18,NNW,338,4.5,4.5,59,0.00,,---,0.00,VWS V14.01,2013-02-01 23:35:00,
2013-02-01 18:40:00,66.4,52.1,30.18,NW,315,5.4,5.6,60,0.00,,---,0.00,VWS V14.01,2013-02-01 23:40:00,
2013-02-01 18:45:00,66.2,52.4,30.18,North,0,4.0,7.4,61,0.00,,---,0.00,VWS V14.01,2013-02-01 23:45:00,
2013-02-01 18:50:00,66.0,52.6,30.18,WNW,292,5.6,6.0,62,0.00,,---,0.00,VWS V14.01,2013-02-01 23:50:00,
2013-02-01 18:55:00,66.0,52.6,30.18,NNW,338,8.1,8.1,62,0.00,,---,0.00,VWS V14.01,2013-02-01 23:55:00,
2013-02-01 19:00:00,65.8,52.5,30.18,North,0,3.6,5.4,62,0.00,,---,0.00,VWS V14.01,2013-02-02 00:00:00,
2013-02-01 19:05:00,65.8,52.5,30.18,NNW,338,4.9,5.8,62,0.00,,---,0.00,VWS V14.01,2013-02-02 00:05:00,
2013-02-01 19:10:00,65.5,52.1,30.18,NNW,338,4.9,4.9,62,0.00,,---,0.00,VWS V14.01,2013-02-02 00:10:00,
2013-02-01 19:15:00,65.5,52.1,30.18,North,0,4.3,4.3,62,0.00,,---,0.00,VWS V14.01,2013-02-02 00:15:00,
2013-02-01 19:20:00,65.3,52.0,30.18,NW,315,3.1,5.8,62,0.00,,---,0.00,VWS V14.01,2013-02-02 00:20:00,
2013-02-01 19:25:00,65.3,52.0,30.18,ENE,68,1.1,2.5,62,0.00,,---,0.00,VWS V14.01,2013-02-02 00:25:00,
2013-02-01 19:30:00,65.1,51.8,30.18,WNW,292,0.0,0.0,62,0.00,,---,0.00,VWS V14.01,2013-02-02 00:30:00,
2013-02-01 19:35:00,65.1,51.8,30.18,North,0,1.3,1.3,62,0.00,,---,0.00,VWS V14.01,2013-02-02 00:35:00,
2013-02-01 19:40:00,64.9,51.6,30.18,NW,315,1.6,2.5,62,0.00,,---,0.00,VWS V14.01,2013-02-02 00:40:00,
2013-02-01 19:45:00,64.8,51.9,30.18,NNW,338,3.6,5.8,63,0.00,,---,0.00,VWS V14.01,2013-02-02 00:45:00,
2013-02-01 19:50:00,64.6,51.7,30.18,NW,315,6.5,6.5,63,0.00,,---,0.00,VWS V14.01,2013-02-02 00:50:00,
2013-02-01 19:55:00,64.4,51.1,30.18,NW,315,4.9,6.5,62,0.00,,---,0.00,VWS V14.01,2013-02-02 00:55:00,
2013-02-01 20:00:00,64.4,51.1,30.18,North,0,2.0,2.0,62,0.00,,---,0.00,VWS V14.01,2013-02-02 01:00:00,
2013-02-01 20:05:00,64.2,51.4,30.18,NNW,338,2.0,2.0,63,0.00,,---,0.00,VWS V14.01,2013-02-02 01:05:00,
2013-02-01 20:10:00,64.0,51.2,30.18,NW,315,2.9,5.6,63,0.00,,---,0.00,VWS V14.01,2013-02-02 01:10:00,
2013-02-01 20:15:00,63.9,51.0,30.18,NNW,338,3.8,4.3,63,0.00,,---,0.00,VWS V14.01,2013-02-02 01:15:00,
2013-02-01 20:20:00,63.9,51.0,30.18,WNW,292,3.8,3.8,63,0.00,,---,0.00,VWS V14.01,2013-02-02 01:20:00,
2013-02-01 20:25:00,63.7,51.3,30.18,NE,45,2.2,2.2,64,0.00,,---,0.00,VWS V14.01,2013-02-02 01:25:00,
2013-02-01 20:30:00,63.7,51.3,30.18,NNW,338,0.0,1.1,64,0.00,,---,0.00,VWS V14.01,2013-02-02 01:30:00,
2013-02-01 20:35:00,63.3,51.0,30.18,NNW,338,2.0,2.5,64,0.00,,---,0.00,VWS V14.01,2013-02-02 01:35:00,
2013-02-01 20:40:00,63.1,50.8,30.18,NW,315,3.1,3.8,64,0.00,,---,0.00,VWS V14.01,2013-02-02 01:40:00,
2013-02-01 20:45:00,63.1,50.8,30.18,NNW,338,4.7,4.9,64,0.00,,---,0.00,VWS V14.01,2013-02-02 01:45:00,
2013-02-01 20:50:00,63.0,50.6,30.18,NNW,338,2.5,4.0,64,0.00,,---,0.00,VWS V14.01,2013-02-02 01:50:00,
2013-02-01 20:55:00,63.0,50.6,30.18,NNW,338,2.7,3.4,64,0.00,,---,0.00,VWS V14.01,2013-02-02 01:55:00,
2013-02-01 21:00:00,62.8,50.8,30.18,NW,315,3.1,3.6,65,0.00,,---,0.00,VWS V14.01,2013-02-02 02:00:00,
2013-02-01 21:05:00,62.6,50.7,30.18,WNW,292,4.0,4.0,65,0.00,,---,0.00,VWS V14.01,2013-02-02 02:05:00,
2013-02-01 21:10:00,62.6,50.7,30.18,East,90,0.0,0.0,65,0.00,,---,0.00,VWS V14.01,2013-02-02 02:10:00,
2013-02-01 21:15:00,62.6,50.7,30.18,NNW,338,2.5,3.1,65,0.00,,---,0.00,VWS V14.01,2013-02-02 02:15:00,
2013-02-01 21:20:00,62.4,50.9,30.18,NNW,338,2.5,2.9,66,0.00,,---,0.00,VWS V14.01,2013-02-02 02:20:00,
2013-02-01 21:25:00,62.2,50.8,30.18,NW,315,2.0,3.1,66,0.00,,---,0.00,VWS V14.01,2013-02-02 02:25:00,
2013-02-01 21:30:00,62.2,50.3,30.18,WNW,292,2.0,2.0,65,0.00,,---,0.00,VWS V14.01,2013-02-02 02:30:00,
2013-02-01 21:35:00,61.9,50.4,30.18,West,270,3.1,3.1,66,0.00,,---,0.00,VWS V14.01,2013-02-02 02:35:00,
2013-02-01 21:40:00,61.9,50.4,30.18,NW,315,2.2,2.2,66,0.00,,---,0.00,VWS V14.01,2013-02-02 02:40:00,
2013-02-01 21:45:00,61.9,50.4,30.18,NNW,338,2.5,2.5,66,0.00,,---,0.00,VWS V14.01,2013-02-02 02:45:00,
2013-02-01 21:50:00,61.9,50.0,30.18,SW,225,1.3,1.3,65,0.00,,---,0.00,VWS V14.01,2013-02-02 02:50:00,
2013-02-01 21:55:00,61.7,49.8,30.18,WNW,292,2.0,2.2,65,0.00,,---,0.00,VWS V14.01,2013-02-02 02:55:00,
2013-02-01 22:00:00,61.7,49.8,30.18,WNW,292,2.0,2.0,65,0.00,,---,0.00,VWS V14.01,2013-02-02 03:00:00,
2013-02-01 22:05:00,61.5,49.7,30.18,WNW,292,2.7,2.7,65,0.00,,---,0.00,VWS V14.01,2013-02-02 03:05:00,
2013-02-01 22:10:00,61.3,49.9,30.18,NNW,338,2.0,2.5,66,0.00,,---,0.00,VWS V14.01,2013-02-02 03:10:00,
2013-02-01 22:15:00,61.3,49.9,30.18,West,270,2.0,2.0,66,0.00,,---,0.00,VWS V14.01,2013-02-02 03:15:00,
2013-02-01 22:20:00,61.2,49.7,30.18,NW,315,2.9,3.6,66,0.00,,---,0.00,VWS V14.01,2013-02-02 03:20:00,
2013-02-01 22:25:00,61.2,49.7,30.18,NW,315,1.3,1.6,66,0.00,,---,0.00,VWS V14.01,2013-02-02 03:25:00,
2013-02-01 22:30:00,61.0,49.5,30.18,NNW,338,3.8,3.8,66,0.00,,---,0.00,VWS V14.01,2013-02-02 03:30:00,
2013-02-01 22:35:00,61.0,49.5,30.18,NW,315,1.1,2.9,66,0.00,,---,0.00,VWS V14.01,2013-02-02 03:35:00,
2013-02-01 22:40:00,61.0,49.5,30.18,NW,315,1.1,1.3,66,0.00,,---,0.00,VWS V14.01,2013-02-02 03:40:00,
2013-02-01 22:45:00,60.8,49.4,30.18,NNW,338,2.9,3.4,66,0.00,,---,0.00,VWS V14.01,2013-02-02 03:45:00,
2013-02-01 22:50:00,60.8,49.4,30.18,NW,315,2.0,2.9,66,0.00,,---,0.00,VWS V14.01,2013-02-02 03:50:00,
2013-02-01 22:55:00,60.8,49.4,30.18,WNW,292,2.5,2.5,66,0.00,,---,0.00,VWS V14.01,2013-02-02 03:55:00,
2013-02-01 23:00:00,60.6,49.2,30.18,North,0,2.7,2.7,66,0.00,,---,0.00,VWS V14.01,2013-02-02 04:00:00,
2013-02-01 23:05:00,60.4,49.0,30.18,NW,315,1.6,2.0,66,0.00,,---,0.00,VWS V14.01,2013-02-02 04:05:00,
2013-02-01 23:10:00,60.4,49.4,30.18,NW,315,3.4,3.4,67,0.00,,---,0.00,VWS V14.01,2013-02-02 04:10:00,
2013-02-01 23:15:00,60.3,49.3,30.18,NW,315,4.0,4.0,67,0.00,,---,0.00,VWS V14.01,2013-02-02 04:15:00,
2013-02-01 23:20:00,60.1,49.1,30.18,NNW,338,3.1,3.4,67,0.00,,---,0.00,VWS V14.01,2013-02-02 04:20:00,
2013-02-01 23:25:00,60.1,49.1,30.18,NNW,338,1.6,1.6,67,0.00,,---,0.00,VWS V14.01,2013-02-02 04:25:00,
2013-02-01 23:30:00,60.1,49.1,30.18,NNW,338,0.0,0.0,67,0.00,,---,0.00,VWS V14.01,2013-02-02 04:30:00,
2013-02-01 23:35:00,59.9,48.9,30.18,WNW,292,3.1,3.1,67,0.00,,---,0.00,VWS V14.01,2013-02-02 04:35:00,
2013-02-01 23:40:00,59.9,49.3,30.18,NW,315,2.9,2.9,68,0.00,,---,0.00,VWS V14.01,2013-02-02 04:40:00,
2013-02-01 23:45:00,59.7,49.2,30.18,WNW,292,2.7,2.7,68,0.00,,---,0.00,VWS V14.01,2013-02-02 04:45:00,
2013-02-01 23:50:00,59.5,49.0,30.18,NNW,338,2.7,2.7,68,0.00,,---,0.00,VWS V14.01,2013-02-02 04:50:00,
2013-02-01 23:55:00,59.5,49.0,30.18,NNW,338,2.2,2.7,68,0.00,,---,0.00,VWS V14.01,2013-02-02 04:55:00,